QPF
0.00 0.04 0.12 0.10 0.06 0.05 0.02 0.02 0.02 0.05 0.06 0.04 0.02 0.01 0.00 0.00 0.00 0.00 0.00 0.00 0.00 0.00 0.00 0.00 0.00 0.00 0.00 0.00 0.00 0.00 0.00 0.00 0.03 0.06 0.09 0.13 0.17 0.17 0.17 0.16 0.10 0.07 0.04 0.03
0.02 0.05 0.05 0.03 0.03 0.02 0.02 0.03 0.04 0.04 0.04 0.03 0.01 0.01 0.00 0.00 0.00 0.00 0.00 0.00 0.00 0.00 0.00 0.00 0.00 0.00 0.00 0.00 0.00 0.00 0.00 0.00 0.01 0.03 0.06 0.10 0.15 0.15 0.14 0.12 0.10 0.08 0.07 0.05
0.02 0.03 0.02 0.02 0.01 0.02 0.04 0.05 0.05 0.04 0.03 0.02 0.01 0.00 0.00 0.00 0.00 0.00 0.00 0.00 0.00 0.00 0.00 0.00 0.00 0.00 0.00 0.00 0.00 0.00 0.00 0.00 0.01 0.02 0.04 0.06 0.11 0.14 0.16 0.14 0.15 0.11 0.10 0.08
0.00 0.00 0.00 0.01 0.01 0.02 0.05 0.05 0.05 0.05 0.05 0.04 0.03 0.03 0.00 0.00 0.00 0.00 0.00 0.00 0.00 0.00 0.00 0.00 0.00 0.00 0.00 0.00 0.00 0.00 0.00 0.00 0.00 0.01 0.02 0.04 0.07 0.10 0.12 0.14 0.16 0.11 0.10 0.09
0.00 0.00 0.00 0.00 0.01 0.01 0.02 0.02 0.03 0.04 0.06 0.06 0.05 0.06 0.02 0.00 0.00 0.00 0.00 0.00 0.00 0.00 0.00 0.00 0.00 0.00 0.00 0.00 0.00 0.00 0.00 0.00 0.00 0.00 0.01 0.03 0.04 0.07 0.07 0.07 0.09 0.10 0.10 0.10
0.00 0.00 0.00 0.00 0.00 0.00 0.00 0.01 0.01 0.02 0.03 0.03 0.02 0.04 0.03 0.01 0.01 0.00 0.00 0.00 0.00 0.00 0.00 0.00 0.00 0.00 0.00 0.00 0.00 0.00 0.00 0.00 0.00 0.00 0.00 0.01 0.02 0.02 0.03 0.05 0.08 0.12 0.12 0.11
0.00 0.00 0.00 0.00 0.00 0.00 0.00 0.02 0.04 0.05 0.05 0.03 0.01 0.02 0.02 0.01 0.00 0.00 0.00 0.00 0.00 0.00 0.00 0.00 0.00 0.00 0.00 0.00 0.00 0.00 0.00 0.00 0.00 0.00 0.00 0.00 0.00 0.00 0.01 0.02 0.05 0.08 0.11 0.13
0.00 0.00 0.00 0.00 0.00 0.00 0.00 0.01 0.04 0.06 0.07 0.04 0.02 0.01 0.00 0.00 0.00 0.00 0.00 0.00 0.00 0.00 0.00 0.00 0.00 0.00 0.00 0.00 0.00 0.00 0.00 0.00 0.00 0.00 0.00 0.00 0.00 0.00 0.01 0.02 0.03 0.05 0.09 0.11
0.00 0.00 0.00 0.00 0.00 0.00 0.00 0.00 0.00 0.02 0.02 0.02 0.02 0.01 0.01 0.00 0.00 0.00 0.00 0.00 0.01 0.01 0.00 0.00 0.00 0.00 0.00 0.00 0.00 0.00 0.00 0.00 0.00 0.00 0.00 0.00 0.00 0.00 0.01 0.01 0.02 0.04 0.06 0.06
0.00 0.00 0.00 0.00 0.00 0.00 0.00 0.00 0.00 0.02 0.06 0.06 0.02 0.02 0.03 0.03 0.03 0.02 0.02 0.01 0.02 0.02 0.02 0.01 0.00 0.00 0.00 0.00 0.00 0.00 0.00 0.00 0.00 0.00 0.00 0.00 0.00 0.00 0.00 0.01 0.02 0.03 0.04 0.04
0.00 0.02 0.01 0.00 0.00 0.01 0.02 0.02 0.03 0.04 0.04 0.08 0.10 0.09 0.06 0.09 0.11 0.10 0.08 0.05 0.05 0.05 0.05 0.04 0.02 0.01 0.00 0.00 0.00 0.00 0.00 0.00 0.00 0.00 0.00 0.00 0.00 0.00 0.00 0.01 0.01 0.01 0.01 0.02
0.00 0.04 0.04 0.00 0.01 0.03 0.04 0.07 0.09 0.16 0.14 0.10 0.15 0.14 0.08 0.10 0.10 0.08 0.06 0.03 0.03 0.04 0.05 0.05 0.02 0.01 0.00 0.00 0.00 0.00 0.00 0.00 0.00 0.00 0.00 0.00 0.00 0.00 0.00 0.00 0.00 0.00 0.01 0.01
0.01 0.06 0.07 0.05 0.10 0.15 0.14 0.11 0.07 0.10 0.18 0.20 0.19 0.13 0.06 0.06 0.06 0.05 0.03 0.02 0.01 0.01 0.01 0.01 0.01 0.00 0.00 0.00 0.00 0.00 0.01 0.01 0.00 0.00 0.00 0.00 0.00 0.00 0.00 0.00 0.00 0.00 0.00 0.01
0.01 0.05 0.11 0.14 0.17 0.22 0.18 0.10 0.05 0.08 0.19 0.19 0.17 0.11 0.09 0.09 0.06 0.03 0.01 0.00 0.00 0.00 0.00 0.00 0.00 0.00 0.00 0.00 0.00 0.01 0.02 0.02 0.01 0.00 0.00 0.00 0.00 0.00 0.00 0.00 0.00 0.00 0.00 0.00
0.00 0.03 0.05 0.06 0.05 0.05 0.06 0.05 0.03 0.06 0.12 0.18 0.17 0.12 0.08 0.05 0.03 0.01 0.00 0.00 0.00 0.00 0.00 0.00 0.00 0.00 0.00 0.00 0.00 0.00 0.01 0.02 0.01 0.00 0.00 0.00 0.00 0.00 0.00 0.00 0.00 0.00 0.00 0.00
0.00 0.01 0.01 0.01 0.01 0.02 0.04 0.06 0.08 0.10 0.12 0.15 0.17 0.16 0.07 0.01 0.01 0.01 0.00 0.00 0.01 0.00 0.00 0.00 0.00 0.00 0.01 0.01 0.00 0.00 0.01 0.02 0.02 0.01 0.01 0.00 0.00 0.00 0.00 0.00 0.00 0.01 0.01 0.01
0.00 0.02 0.03 0.03 0.01 0.04 0.14 0.19 0.19 0.17 0.14 0.12 0.12 0.08 0.02 0.01 0.01 0.00 0.01 0.02 0.03 0.03 0.02 0.01 0.01 0.01 0.02 0.03 0.01 0.01 0.01 0.02 0.02 0.01 0.01 0.01 0.01 0.02 0.02 0.01 0.02 0.03 0.03 0.03
0.02 0.04 0.07 0.06 0.05 0.15 0.33 0.27 0.20 0.23 0.13 0.06 0.03 0.01 0.00 0.01 0.01 0.00 0.00 0.01 0.01 0.03 0.03 0.03 0.03 0.03 0.04 0.05 0.04 0.04 0.03 0.04 0.04 0.03 0.04 0.03 0.03 0.03 0.03 0.04 0.04 0.05 0.05 0.06
0.02 0.06 0.10 0.11 0.12 0.25 0.35 0.22 0.19 0.23 0.19 0.07 0.02 0.00 0.00 0.01 0.01 0.00 0.00 0.01 0.01 0.01 0.02 0.02 0.03 0.03 0.03 0.03 0.02 0.02 0.02 0.02 0.02 0.02 0.02 0.02 0.02 0.02 0.02 0.03 0.06 0.07 0.08 0.08
0.01 0.06 0.09 0.10 0.13 0.30 0.25 0.08 0.08 0.18 0.27 0.09 0.03 0.01 0.00 0.00 0.01 0.00 0.01 0.01 0.01 0.01 0.01 0.01 0.01 0.01 0.01 0.01 0.01 0.01 0.01 0.00 0.01 0.01 0.01 0.01 0.01 0.02 0.02 0.03 0.06 0.08 0.10 0.11
0.00 0.02 0.04 0.04 0.11 0.24 0.16 0.06 0.08 0.17 0.26 0.13 0.04 0.01 0.00 0.00 0.00 0.00 0.01 0.01 0.01 0.00 0.00 0.00 0.00 0.00 0.00 0.00 0.00 0.00 0.00 0.00 0.00 0.00 0.00 0.00 0.00 0.01 0.02 0.03 0.04 0.06 0.07 0.08
0.00 0.01 0.01 0.02 0.06 0.13 0.09 0.06 0.11 0.11 0.08 0.08 0.03 0.01 0.00 0.00 0.00 0.00 0.01 0.00 0.00 0.00 0.00 0.00 0.00 0.00 0.00 0.00 0.00 0.00 0.00 0.00 0.00 0.00 0.00 0.00 0.00 0.00 0.01 0.01 0.03 0.04 0.04 0.05
0.00 0.00 0.01 0.01 0.03 0.03 0.03 0.03 0.05 0.04 0.05 0.03 0.01 0.00 0.00 0.00 0.00 0.00 0.00 0.00 0.00 0.00 0.00 0.00 0.00 0.00 0.00 0.00 0.00 0.00 0.00 0.00 0.00 0.00 0.00 0.00 0.00 0.00 0.00 0.01 0.01 0.02 0.03 0.04
0.00 0.00 0.01 0.01 0.01 0.01 0.01 0.01 0.01 0.01 0.02 0.01 0.00 0.00 0.00 0.00 0.00 0.00 0.00 0.00 0.00 0.00 0.00 0.00 0.00 0.00 0.00 0.00 0.00 0.00 0.00 0.00 0.00 0.00 0.00 0.00 0.00 0.00 0.00 0.01 0.01 0.02 0.03 0.05
0.00 0.00 0.01 0.01 0.00 0.00 0.01 0.01 0.00 0.00 0.01 0.00 0.00 0.00 0.00 0.00 0.00 0.00 0.00 0.00 0.00 0.00 0.00 0.00 0.00 0.00 0.00 0.00 0.00 0.00 0.00 0.00 0.00 0.00 0.00 0.00 0.00 0.00 0.00 0.00 0.01 0.03 0.03 0.04
0.00 0.00 0.01 0.00 0.00 0.00 0.00 0.00 0.00 0.00 0.00 0.00 0.00 0.00 0.00 0.00 0.00 0.00 0.00 0.00 0.00 0.00 0.00 0.00 0.00 0.00 0.00 0.00 0.00 0.00 0.00 0.00 0.00 0.00 0.00 0.00 0.00 0.00 0.00 0.01 0.00 0.01 0.01 0.01
MSLP
1008.31 1008.79 1009.21 1009.58 1009.89 1010.15 1010.36 1010.50 1010.57 1010.54 1010.37 1010.05 1009.56 1008.91 1008.14 1007.28 1006.41 1005.60 1004.90 1004.37 1004.00 1003.81 1003.77 1003.83 1003.96 1004.12 1004.31 1004.51 1004.76 1005.09 1005.51 1006.05 1006.69 1007.43 1008.19 1008.93 1009.59 1010.10 1010.46 1010.65 1010.71 1010.69 1010.66 1010.68
1008.76 1009.18 1009.57 1009.94 1010.31 1010.69 1011.07 1011.42 1011.70 1011.85 1011.80 1011.52 1010.97 1010.17 1009.15 1008.00 1006.83 1005.74 1004.81 1004.12 1003.69 1003.51 1003.54 1003.72 1003.98 1004.26 1004.53 1004.79 1005.05 1005.35 1005.74 1006.23 1006.84 1007.54 1008.30 1009.03 1009.69 1010.20 1010.54 1010.72 1010.75 1010.70 1010.64 1010.63
1008.99 1009.33 1009.67 1010.05 1010.48 1010.98 1011.52 1012.07 1012.56 1012.88 1012.96 1012.71 1012.11 1011.17 1009.93 1008.52 1007.07 1005.73 1004.60 1003.77 1003.30 1003.15 1003.28 1003.60 1004.01 1004.44 1004.82 1005.16 1005.45 1005.75 1006.10 1006.54 1007.09 1007.73 1008.42 1009.11 1009.73 1010.22 1010.54 1010.69 1010.71 1010.65 1010.58 1010.56
1008.97 1009.23 1009.52 1009.89 1010.36 1010.95 1011.64 1012.36 1013.01 1013.49 1013.68 1013.48 1012.84 1011.79 1010.40 1008.78 1007.11 1005.56 1004.28 1003.37 1002.87 1002.77 1003.01 1003.47 1004.04 1004.62 1005.14 1005.56 1005.91 1006.21 1006.52 1006.90 1007.36 1007.91 1008.52 1009.13 1009.69 1010.13 1010.41 1010.55 1010.57 1010.51 1010.45 1010.45
1008.80 1008.96 1009.19 1009.52 1010.01 1010.65 1011.42 1012.26 1013.05 1013.65 1013.92 1013.77 1013.14 1012.04 1010.54 1008.80 1007.00 1005.33 1003.96 1003.00 1002.50 1002.46 1002.79 1003.38 1004.10 1004.81 1005.44 1005.95 1006.34 1006.64 1006.92 1007.23 1007.61 1008.06 1008.56 1009.08 1009.55 1009.93 1010.19 1010.31 1010.33 1010.30 1010.27 1010.30
1008.61 1008.68 1008.82 1009.10 1009.54 1010.18 1010.98 1011.87 1012.73 1013.40 1013.75 1013.65 1013.06 1011.97 1010.46 1008.69 1006.85 1005.14 1003.74 1002.77 1002.30 1002.30 1002.70 1003.38 1004.19 1004.99 1005.70 1006.27 1006.69 1006.99 1007.24 1007.48 1007.77 1008.13 1008.53 1008.95 1009.35 1009.67 1009.89 1010.01 1010.05 1010.05 1010.06 1010.13
1008.56 1008.54 1008.59 1008.78 1009.14 1009.72 1010.47 1011.34 1012.21 1012.91 1013.30 1013.26 1012.73 1011.71 1010.28 1008.56 1006.77 1005.11 1003.74 1002.80 1002.35 1002.37 1002.80 1003.50 1004.33 1005.17 1005.91 1006.49 1006.91 1007.21 1007.42 1007.61 1007.84 1008.11 1008.43 1008.78 1009.10 1009.37 1009.57 1009.69 1009.76 1009.80 1009.85 1009.97
1008.80 1008.70 1008.65 1008.71 1008.96 1009.42 1010.07 1010.85 1011.66 1012.34 1012.75 1012.78 1012.34 1011.44 1010.14 1008.56 1006.89 1005.33 1004.04 1003.13 1002.69 1002.69 1003.08 1003.74 1004.52 1005.31 1006.01 1006.57 1006.97 1007.24 1007.43 1007.60 1007.78 1008.01 1008.28 1008.57 1008.85 1009.09 1009.28 1009.41 1009.49 1009.57 1009.67 1009.83
1009.39 1009.21 1009.06 1009.00 1009.11 1009.41 1009.90 1010.55 1011.25 1011.88 1012.28 1012.36 1012.03 1011.27 1010.15 1008.75 1007.26 1005.83 1004.63 1003.76 1003.30 1003.24 1003.52 1004.06 1004.71 1005.39 1005.99 1006.48 1006.83 1007.08 1007.25 1007.41 1007.59 1007.81 1008.07 1008.34 1008.61 1008.85 1009.03 1009.17 1009.28 1009.39 1009.53 1009.72
1010.28 1010.05 1009.82 1009.65 1009.60 1009.74 1010.06 1010.54 1011.11 1011.64 1012.02 1012.13 1011.90 1011.30 1010.36 1009.16 1007.85 1006.57 1005.45 1004.60 1004.09 1003.91 1004.04 1004.38 1004.85 1005.35 1005.81 1006.20 1006.49 1006.71 1006.89 1007.07 1007.28 1007.52 1007.80 1008.09 1008.38 1008.62 1008.82 1008.97 1009.10 1009.23 1009.40 1009.61
1011.36 1011.11 1010.82 1010.56 1010.39 1010.38 1010.53 1010.85 1011.27 1011.70 1012.02 1012.15 1012.00 1011.53 1010.76 1009.75 1008.61 1007.44 1006.39 1005.53 1004.93 1004.60 1004.53 1004.65 1004.89 1005.18 1005.48 1005.74 1005.97 1006.17 1006.37 1006.59 1006.85 1007.16 1007.49 1007.83 1008.14 1008.41 1008.62 1008.79 1008.93 1009.07 1009.24 1009.47
1012.42 1012.19 1011.89 1011.59 1011.35 1011.22 1011.24 1011.42 1011.71 1012.03 1012.30 1012.42 1012.31 1011.94 1011.30 1010.43 1009.41 1008.34 1007.31 1006.41 1005.70 1005.21 1004.92 1004.80 1004.81 1004.90 1005.03 1005.18 1005.35 1005.53 1005.76 1006.04 1006.38 1006.75 1007.15 1007.54 1007.89 1008.19 1008.42 1008.59 1008.73 1008.87 1009.04 1009.26
1013.29 1013.13 1012.87 1012.59 1012.33 1012.15 1012.10 1012.18 1012.36 1012.59 1012.80 1012.89 1012.79 1012.47 1011.91 1011.13 1010.18 1009.15 1008.13 1007.17 1006.35 1005.69 1005.20 1004.87 1004.67 1004.58 1004.57 1004.62 1004.74 1004.93 1005.19 1005.52 1005.93 1006.37 1006.82 1007.26 1007.65 1007.96 1008.20 1008.37 1008.49 1008.62 1008.77 1008.97
1013.88 1013.81 1013.65 1013.44 1013.23 1013.07 1013.01 1013.04 1013.17 1013.33 1013.47 1013.51 1013.40 1013.08 1012.54 1011.78 1010.87 1009.85 1008.80 1007.78 1006.85 1006.05 1005.41 1004.91 1004.55 1004.32 1004.21 1004.19 1004.28 1004.47 1004.76 1005.14 1005.59 1006.08 1006.57 1007.04 1007.44 1007.75 1007.98 1008.13 1008.23 1008.33 1008.45 1008.62
1014.17 1014.22 1014.19 1014.11 1014.01 1013.94 1013.92 1013.97 1014.06 1014.18 1014.26 1014.25 1014.08 1013.72 1013.16 1012.39 1011.46 1010.43 1009.34 1008.27 1007.27 1006.38 1005.63 1005.03 1004.57 1004.26 1004.08 1004.03 1004.11 1004.30 1004.61 1005.00 1005.47 1005.96 1006.46 1006.92 1007.30 1007.60 1007.80 1007.92 1007.99 1008.04 1008.12 1008.26
1014.25 1014.43 1014.55 1014.63 1014.69 1014.74 1014.81 1014.91 1015.02 1015.11 1015.14 1015.05 1014.82 1014.40 1013.78 1012.97 1012.00 1010.93 1009.82 1008.72 1007.68 1006.76 1005.96 1005.32 1004.83 1004.49 1004.30 1004.24 1004.31 1004.49 1004.79 1005.17 1005.61 1006.08 1006.54 1006.95 1007.29 1007.55 1007.70 1007.78 1007.81 1007.82 1007.85 1007.94
1014.27 1014.58 1014.86 1015.10 1015.32 1015.51 1015.69 1015.86 1016.00 1016.07 1016.05 1015.90 1015.59 1015.08 1014.39 1013.52 1012.51 1011.42 1010.29 1009.19 1008.17 1007.25 1006.48 1005.85 1005.39 1005.06 1004.88 1004.83 1004.89 1005.06 1005.33 1005.66 1006.04 1006.44 1006.82 1007.16 1007.44 1007.63 1007.74 1007.77 1007.75 1007.71 1007.69 1007.73
1014.41 1014.82 1015.22 1015.61 1015.96 1016.28 1016.57 1016.80 1016.96 1017.02 1016.95 1016.73 1016.33 1015.75 1014.98 1014.06 1013.02 1011.91 1010.80 1009.73 1008.75 1007.89 1007.18 1006.62 1006.21 1005.94 1005.79 1005.75 1005.81 1005.95 1006.15 1006.41 1006.70 1007.00 1007.29 1007.54 1007.73 1007.86 1007.91 1007.90 1007.84 1007.77 1007.70 1007.68
1014.77 1015.24 1015.72 1016.20 1016.65 1017.05 1017.40 1017.67 1017.83 1017.87 1017.75 1017.46 1016.98 1016.33 1015.50 1014.54 1013.48 1012.39 1011.31 1010.30 1009.39 1008.62 1008.00 1007.53 1007.20 1006.99 1006.88 1006.86 1006.90 1007.00 1007.13 1007.30 1007.49 1007.68 1007.86 1008.01 1008.13 1008.19 1008.21 1008.16 1008.08 1007.98 1007.89 1007.82
1015.38 1015.86 1016.36 1016.87 1017.35 1017.78 1018.14 1018.40 1018.53 1018.53 1018.35 1018.00 1017.46 1016.75 1015.89 1014.90 1013.86 1012.80 1011.77 1010.83 1010.01 1009.34 1008.82 1008.44 1008.19 1008.04 1007.98 1007.97 1007.99 1008.05 1008.11 1008.19 1008.28 1008.36 1008.45 1008.52 1008.57 1008.59 1008.57 1008.52 1008.44 1008.33 1008.22 1008.13
1016.16 1016.60 1017.07 1017.54 1017.98 1018.38 1018.69 1018.90 1018.98 1018.91 1018.67 1018.26 1017.67 1016.93 1016.05 1015.08 1014.07 1013.06 1012.10 1011.25 1010.52 1009.94 1009.51 1009.21 1009.03 1008.94 1008.90 1008.90 1008.91 1008.93 1008.94 1008.94 1008.95 1008.95 1008.97 1008.98 1008.99 1008.99 1008.97 1008.92 1008.85 1008.77 1008.66 1008.56
1016.97 1017.33 1017.71 1018.10 1018.45 1018.76 1018.99 1019.11 1019.11 1018.96 1018.66 1018.20 1017.58 1016.83 1015.96 1015.03 1014.06 1013.12 1012.24 1011.47 1010.82 1010.32 1009.97 1009.74 1009.61 1009.55 1009.54 1009.55 1009.55 1009.54 1009.51 1009.47 1009.42 1009.38 1009.35 1009.33 1009.33 1009.33 1009.33 1009.32 1009.28 1009.23 1009.15 1009.06
1017.65 1017.91 1018.18 1018.45 1018.69 1018.87 1018.98 1019.00 1018.90 1018.68 1018.32 1017.82 1017.19 1016.45 1015.62 1014.74 1013.84 1012.97 1012.17 1011.47 1010.90 1010.46 1010.15 1009.97 1009.87 1009.85 1009.85 1009.87 1009.87 1009.86 1009.81 1009.76 1009.69 1009.64 1009.60 1009.57 1009.58 1009.60 1009.63 1009.67 1009.68 1009.67 1009.63 1009.57
1018.08 1018.23 1018.39 1018.53 1018.64 1018.69 1018.69 1018.60 1018.41 1018.12 1017.72 1017.20 1016.58 1015.87 1015.09 1014.28 1013.45 1012.65 1011.93 1011.29 1010.77 1010.37 1010.10 1009.93 1009.86 1009.85 1009.87 1009.90 1009.92 1009.91 1009.89 1009.85 1009.79 1009.75 1009.72 1009.72 1009.75 1009.80 1009.88 1009.95 1010.02 1010.06 1010.07 1010.05
1018.18 1018.25 1018.30 1018.34 1018.33 1018.29 1018.18 1018.00 1017.75 1017.41 1016.98 1016.47 1015.87 1015.21 1014.49 1013.74 1012.99 1012.26 1011.59 1011.01 1010.52 1010.14 1009.88 1009.73 1009.66 1009.65 1009.69 1009.73 1009.78 1009.81 1009.82 1009.81 1009.79 1009.78 1009.78 1009.81 1009.87 1009.95 1010.06 1010.18 1010.30 1010.39 1010.45 1010.47
1017.97 1017.98 1017.97 1017.93 1017.86 1017.74 1017.57 1017.34 1017.05 1016.69 1016.26 1015.76 1015.20 1014.59 1013.93 1013.25 1012.56 1011.89 1011.27 1010.72 1010.25 1009.88 1009.62 1009.45 1009.38 1009.38 1009.42 1009.50 1009.57 1009.65 1009.70 1009.74 1009.77 1009.80 1009.83 1009.89 1009.97 1010.08 1010.22 1010.37 1010.51 1010.65 1010.75 1010.82
Thickness
5779 5770 5759 5762 5766 5764 5765 5764 5765 5769 5773 5771 5770 5777 5795 5809 5809 5808 5810 5814 5817 5820 5825 5826 5824 5821 5816 5812 5808 5803 5797 5793 5788 5781 5773 5766 5761 5759 5758 5755 5754 5752 5750 5747
5759 5753 5760 5766 5765 5760 5756 5750 5750 5756 5760 5759 5758 5765 5784 5795 5799 5803 5805 5809 5814 5817 5820 5817 5815 5812 5808 5803 5800 5797 5792 5788 5783 5778 5772 5766 5760 5756 5754 5752 5750 5748 5745 5743
5747 5753 5761 5754 5749 5744 5741 5732 5730 5729 5740 5748 5741 5746 5766 5785 5793 5800 5807 5810 5812 5813 5810 5807 5805 5802 5799 5794 5791 5788 5786 5782 5777 5773 5767 5761 5755 5750 5747 5744 5743 5743 5741 5739
5753 5761 5754 5744 5740 5737 5727 5735 5728 5722 5714 5710 5715 5703 5740 5761 5770 5783 5793 5799 5803 5807 5806 5799 5796 5793 5790 5787 5785 5781 5778 5775 5770 5766 5760 5753 5746 5741 5741 5740 5739 5737 5736 5734
5746 5754 5746 5738 5741 5739 5731 5734 5725 5717 5708 5703 5708 5696 5723 5748 5750 5766 5781 5790 5795 5799 5798 5790 5789 5786 5784 5780 5777 5776 5772 5768 5764 5761 5755 5749 5744 5740 5739 5738 5734 5731 5730 5728
5753 5762 5755 5746 5748 5743 5735 5724 5717 5712 5702 5690 5709 5701 5710 5735 5745 5756 5771 5782 5787 5790 5790 5785 5783 5780 5775 5772 5770 5768 5764 5760 5758 5755 5751 5747 5742 5738 5734 5731 5727 5724 5722 5720
5740 5752 5759 5753 5733 5733 5727 5707 5686 5683 5679 5689 5714 5709 5718 5744 5756 5760 5765 5774 5780 5782 5779 5774 5771 5767 5763 5762 5761 5760 5757 5752 5751 5749 5748 5746 5741 5736 5731 5727 5722 5717 5714 5712
5718 5724 5744 5743 5729 5721 5720 5710 5684 5672 5677 5687 5698 5699 5726 5750 5760 5766 5769 5770 5770 5771 5770 5766 5764 5760 5757 5757 5756 5755 5751 5747 5746 5743 5743 5743 5738 5732 5728 5724 5719 5715 5711 5709
5704 5708 5733 5734 5733 5725 5713 5712 5718 5700 5692 5688 5697 5711 5728 5740 5745 5752 5758 5759 5759 5762 5762 5761 5759 5757 5755 5753 5752 5751 5747 5744 5741 5738 5737 5734 5733 5728 5724 5720 5717 5712 5709 5706
5704 5690 5708 5719 5721 5719 5717 5712 5704 5685 5667 5670 5696 5700 5685 5701 5706 5721 5736 5744 5750 5754 5755 5757 5757 5757 5755 5753 5750 5749 5745 5741 5738 5735 5732 5729 5726 5723 5718 5715 5711 5708 5706 5702
5695 5678 5683 5691 5689 5687 5689 5686 5685 5682 5681 5670 5666 5675 5687 5680 5683 5690 5704 5721 5733 5736 5741 5747 5752 5756 5756 5753 5749 5745 5741 5738 5734 5731 5729 5724 5720 5718 5714 5710 5707 5704 5702 5699
5682 5666 5656 5668 5679 5675 5669 5659 5658 5652 5659 5672 5663 5661 5679 5679 5680 5686 5696 5713 5729 5737 5742 5744 5748 5752 5753 5751 5747 5743 5739 5735 5732 5729 5726 5722 5718 5714 5710 5707 5704 5702 5699 5696
5662 5645 5628 5636 5649 5646 5636 5638 5648 5658 5655 5651 5649 5654 5672 5677 5681 5689 5696 5707 5721 5732 5739 5744 5747 5749 5748 5747 5745 5743 5738 5734 5732 5727 5722 5718 5714 5710 5706 5704 5702 5699 5696 5693
5654 5635 5618 5606 5615 5622 5622 5630 5644 5652 5645 5647 5648 5648 5657 5666 5674 5685 5695 5706 5717 5725 5732 5737 5740 5743 5744 5744 5743 5741 5736 5733 5728 5723 5717 5713 5710 5706 5703 5700 5698 5695 5694 5691
5645 5626 5622 5623 5628 5628 5625 5628 5639 5646 5649 5642 5641 5641 5647 5658 5668 5680 5691 5700 5709 5717 5724 5730 5733 5737 5738 5738 5738 5736 5734 5730 5726 5720 5714 5709 5707 5704 5700 5696 5694 5692 5690 5688
5636 5620 5617 5617 5626 5630 5620 5614 5627 5634 5636 5636 5636 5633 5647 5660 5670 5675 5682 5690 5696 5704 5713 5720 5726 5729 5730 5730 5730 5729 5727 5725 5721 5715 5710 5706 5702 5698 5694 5691 5689 5687 5684 5682
5627 5616 5606 5605 5620 5625 5597 5585 5596 5609 5616 5621 5618 5625 5643 5653 5661 5666 5672 5678 5684 5690 5698 5704 5710 5716 5719 5720 5721 5718 5718 5716 5711 5706 5703 5699 5695 5690 5687 5685 5682 5679 5677 5675
5622 5613 5604 5600 5607 5592 5572 5577 5583 5595 5604 5610 5616 5625 5637 5648 5660 5666 5669 5672 5676 5681 5686 5692 5698 5703 5707 5709 5710 5709 5707 5703 5698 5693 5691 5688 5685 5681 5679 5676 5674 5672 5671 5669
5625 5610 5599 5592 5589 5581 5573 5577 5578 5583 5596 5601 5607 5619 5632 5646 5662 5665 5666 5670 5671 5675 5679 5684 5689 5693 5696 5698 5699 5698 5693 5689 5685 5681 5679 5677 5674 5671 5669 5667 5666 5665 5664 5663
5621 5612 5598 5591 5583 5569 5565 5579 5588 5593 5594 5598 5602 5611 5623 5634 5635 5644 5659 5667 5670 5673 5676 5679 5683 5686 5687 5688 5688 5684 5679 5676 5672 5671 5669 5668 5666 5664 5661 5660 5659 5658 5657 5656
5601 5598 5591 5585 5580 5568 5573 5584 5593 5585 5581 5592 5600 5609 5617 5622 5628 5643 5658 5665 5670 5672 5674 5676 5676 5676 5677 5678 5676 5671 5668 5665 5665 5664 5663 5661 5659 5657 5656 5653 5652 5651 5649 5648
5590 5583 5579 5578 5573 5567 5582 5586 5581 5580 5590 5596 5603 5611 5618 5625 5637 5647 5657 5664 5670 5671 5671 5671 5670 5669 5671 5671 5668 5663 5660 5661 5661 5659 5656 5654 5653 5651 5649 5646 5645 5644 5642 5640
5592 5583 5578 5576 5576 5584 5589 5589 5591 5594 5596 5602 5608 5615 5622 5629 5638 5648 5657 5665 5670 5672 5670 5669 5668 5666 5666 5665 5662 5658 5657 5657 5656 5653 5651 5648 5647 5644 5641 5639 5637 5635 5633 5631
5598 5594 5587 5583 5587 5590 5594 5596 5599 5602 5604 5609 5615 5621 5627 5632 5641 5649 5657 5665 5670 5672 5670 5669 5667 5664 5662 5661 5659 5656 5654 5654 5653 5649 5646 5643 5640 5637 5634 5631 5629 5627 5624 5622
5597 5593 5587 5586 5590 5592 5596 5598 5602 5608 5612 5616 5621 5626 5631 5637 5644 5651 5658 5666 5670 5672 5671 5668 5665 5662 5661 5660 5656 5653 5651 5650 5648 5646 5642 5638 5634 5631 5627 5622 5617 5616 5613 5610
5608 5597 5588 5586 5592 5590 5594 5601 5608 5611 5616 5621 5625 5631 5636 5642 5648 5655 5661 5667 5671 5673 5672 5667 5664 5662 5661 5658 5654 5650 5648 5646 5643 5639 5637 5634 5630 5627 5624 5619 5612 5607 5606 5604